Flag for U.S.A. Weather past 2 weeks in South Bend, Indiana, U.S.A.

Now
70 °F

Sunny.


Feels Like: 75 °F
Forecast: 35 / 66 °F
Wind: 6 mph from North

Location: Michiana Regional Airport

Current Time: Apr 1, 2015 at 5:48:49 PM

Latest Report: Apr 1, 2015 at 4:54 PM


Visibility: 10 mi

Pressure: 29.98 "Hg

Humidity: 23%

Dew point: 31 °F

Location of South BendLocation

Historic Weather in South Bend — Graph

°F

South Bend temperature yesterday

Maximum temperature yesterday: 51 °F (at 2:54 AM)
Minimum temperature yesterday: 37 °F (at 10:54 PM)
Average temperature yesterday: 45 °F

Past Weeks' High & Low Weather Summary

 TemperatureHumidityPressure
High69 °F (Apr 1, 3:54 PM)100% (Mar 25, 11:54 AM)30.37 "Hg (Mar 25, 11:54 AM)
Low12 °F (Mar 28, 6:54 AM)23% (Mar 18, 2:54 PM)29.70 "Hg (Mar 31, 4:54 AM)
Average36 °F61%30.14 "Hg
* Reported Mar 17 3:54 PM — Apr 1 3:54 PM, South Bend, Weather by CustomWeather, © 2015

Note: Actual official high and low records may vary slightly from our data, if they occured in-between our weather recording intervals... More about our weather records

Advertising

South Bend weather history for previous 24 hours

 ConditionsComfort  
Time TempWeatherWind HumidityBarometerVisibility
3:54 PM
Wed, Apr 1
69 °FSunny.9 mph24%30.01 "Hg10 mi
2:54 PM67 °FSunny.6 mph29%30.03 "Hg10 mi
1:54 PM65 °FSunny.9 mph33%30.06 "Hg10 mi
12:54 PM62 °FSunny.9 mph37%30.10 "Hg10 mi
11:54 AM57 °FSunny.9 mph44%30.12 "Hg10 mi
10:54 AM51 °FSunny.7 mph52%30.13 "Hg10 mi
9:54 AM47 °FSunny.7 mph61%30.12 "Hg10 mi
8:54 AM40 °FSunny.No wind73%30.10 "Hg10 mi
7:54 AM31 °FClear.5 mph85%30.07 "Hg10 mi
6:54 AM37 °FClear.3 mph73%30.04 "Hg10 mi
5:54 AM36 °FClear.No wind75%30.02 "Hg10 mi
4:54 AM37 °FClear.6 mph76%30.00 "Hg10 mi
3:54 AM38 °FClear.9 mph76%30.00 "Hg10 mi
2:54 AM38 °FClear.7 mph76%30.00 "Hg10 mi
1:54 AM40 °FClear.No wind70%29.99 "Hg10 mi
12:54 AM36 °FClear.No wind79%30.00 "Hg10 mi
11:54 PM
Tue, Mar 31
39 °FClear.6 mph73%30.00 "Hg10 mi
10:54 PM37 °FClear.3 mph73%30.00 "Hg10 mi
9:54 PM40 °FClear.No wind70%30.00 "Hg10 mi
8:54 PM44 °FSunny.No wind63%30.00 "Hg10 mi
7:54 PM45 °FSunny.No wind63%29.99 "Hg10 mi
6:54 PM48 °FSunny.9 mph56%29.99 "Hg10 mi
5:54 PM48 °FSunny.14 mph54%29.97 "Hg10 mi
Weather by CustomWeather, © 2015

See weather overviewHow to use our weather pages